KD2VWU Weather Reports


Display with metric or nautical units.
time (UTC)temp
F
wind
direction
speed
MPH
gust
MPH
rain 1hr
in
rain 24hr
in
rain mn
in
humidity
%
barometer
mb
20260510190207 68 240 1.0 1.0 0.00 0.00 0.00 79 1009.9
20260510185704 67 93 0.0 0.0 0.00 0.00 0.00 82 1010.1
20260510185202 66 229 0.0 1.0 0.00 0.00 0.00 79 1010.2
20260510184658 67 183 1.0 1.0 0.00 0.00 0.00 81 1010.2
20260510184155 66 124 1.0 1.0 0.00 0.00 0.00 81 1010.6
20260510183650 65 306 0.0 1.0 0.00 0.00 0.00 81 1010.4
20260510183145 65 249 1.0 1.0 0.00 0.00 0.00 83 1010.5
20260510182642 66 153 0.0 0.0 0.00 0.00 0.00 82 1010.3
20260510182137 66 212 1.0 1.0 0.00 0.00 0.00 80 1010.3
20260510181635 67 231 1.0 1.0 0.00 0.00 0.00 82 1010.1
20260510181131 66 26 0.0 0.0 0.00 0.00 0.00 80 1010.2
20260510180627 66 22 0.0 0.0 0.00 0.00 0.00 80 1009.8
20260510180125 67 254 1.0 1.0 0.00 0.00 0.00 79 1010.1
20260510175621 68 53 0.0 0.0 0.00 0.00 0.00 80 1009.9
20260510175116 68 71 0.0 1.0 0.00 0.00 0.00 77 1010.1
20260510174615 69 268 1.0 1.0 0.00 0.00 0.00 77 1010.1
20260510174112 68 42 0.0 1.0 0.00 0.00 0.00 76 1010.2
20260510173607 69 253 0.0 1.0 0.00 0.00 0.00 77 1010.2
20260510173104 70 296 3.0 3.0 0.00 0.00 0.00 73 1010.3
20260510172600 69 51 0.0 1.0 0.00 0.00 0.00 78 1010.2
20260510172056 68 261 2.0 2.0 0.00 0.00 0.00 77 1010.3
20260510171553 68 10 1.0 1.0 0.00 0.00 0.00 75 1010.3
20260510171050 68 212 1.0 2.0 0.00 0.00 0.00 75 1010.1
20260510170546 68 131 1.0 1.0 0.00 0.00 0.00 83 1010.2
20260510170043 67 309 3.0 3.0 0.00 0.00 0.00 79 1010.3
20260510165539 68 46 0.0 1.0 0.00 0.00 0.00 77 1010.2
20260510165035 67 72 0.0 0.0 0.00 0.00 0.00 81 1010.1
20260510164532 66 171 0.0 1.0 0.00 0.00 0.00 83 1010.4
20260510164028 66 56 0.0 1.0 0.00 0.00 0.00 82 1009.9
20260510163519 66 243 2.0 2.0 0.00 0.00 0.00 80 1010.2
20260510163015 65 215 3.0 3.0 0.00 0.00 0.00 83 1010.1
20260510162510 65 225 1.0 1.0 0.00 0.00 0.00 82 1010.4
20260510162007 66 269 2.0 2.0 0.00 0.00 0.00 84 1010.5
20260510161503 65 250 5.0 6.0 0.00 0.00 0.00 80 1010.3
20260510160959 65 149 1.0 1.0 0.00 0.00 0.00 82 1010.5
20260510160451 63 149 0.0 1.0 0.00 0.00 0.00 86 1010.3
20260510155948 62 216 2.0 2.0 0.00 0.00 0.00 87 1010.3
20260510155441 63 299 4.0 5.0 0.00 0.00 0.00 83 1010.6
20260510154937 62 215 1.0 1.0 0.00 0.00 0.00 87 1010.8
20260510154433 63 197 1.0 2.0 0.00 0.00 0.00 84 1010.4
20260510153932 63 198 1.0 2.0 0.00 0.00 0.00 88 1010.5
20260510153429 63 20 1.0 2.0 0.00 0.00 0.00 89 1010.6
20260510152926 63 243 3.0 3.0 0.00 0.00 0.00 86 1010.4
20260510152423 62 57 0.0 0.0 0.00 0.00 0.00 89 1010.5
20260510151919 62 267 5.0 6.0 0.00 0.00 0.00 87 1010.2
20260510151417 62 244 3.0 5.0 0.00 0.00 0.00 87 1010.6
20260510150913 62 58 0.0 0.0 0.00 0.00 0.00 92 1010.7
20260510150409 60 11 0.0 0.0 0.00 0.00 0.00 92 1010.6
20260510145905 59 40 0.0 0.0 0.00 0.00 0.00 93 1010.7
20260510145401 60 99 0.0 1.0 0.00 0.00 0.00 92 1010.7
20260510144858 59 310 4.0 5.0 0.00 0.00 0.00 94 1010.6
20260510144355 58 233 2.0 2.0 0.00 0.00 0.00 97 1010.7
20260510143849 57 268 2.0 2.0 0.00 0.00 0.00 97 1010.7
20260510143346 57 285 1.0 1.0 0.00 0.00 0.00 99 1010.7
20260510142843 57 25 0.0 1.0 0.00 0.00 0.00 99 1010.7
20260510142339 56 84 0.0 0.0 0.00 0.00 0.00 99 1010.5
20260510141836 57 102 1.0 1.0 0.00 0.00 0.00 99 1010.5
20260510141333 56 50 0.0 0.0 0.00 0.00 0.00 99 1010.4
20260510140831 56 258 1.0 2.0 0.00 0.00 0.00 99 1010.5
20260510140326 55 80 0.0 0.0 0.00 0.00 0.00 99 1010.4
20260510135819 54 52 0.0 0.0 0.00 0.00 0.00 99 1010.5
20260510135315 55 201 1.0 1.0 0.00 0.00 0.00 99 1010.6
20260510134813 54 67 0.0 0.0 0.00 0.00 0.00 99 1010.3
20260510134310 54 118 0.0 1.0 0.00 0.00 0.00 99 1010.4
20260510133806 53 76 0.0 0.0 0.00 0.00 0.00 99 1010.5
20260510133302 53 355 0.0 0.0 0.00 0.00 0.00 99 1010.4
20260510132758 53 62 0.0 0.0 0.00 0.00 0.00 99 1010.5
20260510132256 53 75 0.0 0.0 0.00 0.00 0.00 99 1010.6
20260510131753 53 90 0.0 0.0 0.00 0.00 0.00 99 1010.4
20260510131251 52 317 0.0 0.0 0.00 0.00 0.00 99 1010.4
20260510130747 53 29 0.0 0.0 0.00 0.00 0.00 99 1010.4
20260510130244 53 29 0.0 0.0 0.00 0.00 0.00 99 1010.2
20260510125740 52 61 0.0 0.0 0.00 0.00 0.00 99 1010.3
20260510125236 52 95 0.0 0.0 0.00 0.00 0.00 99 1010.2
20260510124733 52 309 0.0 1.0 0.00 0.00 0.00 99 1010.2
20260510124231 52 82 0.0 0.0 0.00 0.00 0.00 99 1010.2
20260510123726 52 222 0.0 0.0 0.00 0.00 0.00 99 1010.2
20260510123222 52 221 0.0 0.0 0.00 0.00 0.00 99 1010.2
20260510122718 52 221 0.0 0.0 0.00 0.00 0.00 99 1009.9
20260510122215 52 48 0.0 0.0 0.00 0.00 0.00 99 1009.9
20260510121711 52 40 0.0 0.0 0.00 0.00 0.00 99 1009.7
20260510121209 52 65 0.0 0.0 0.00 0.00 0.00 99 1009.7
20260510120705 52 67 0.0 0.0 0.00 0.00 0.00 99 1009.7
20260510120202 51 259 0.0 1.0 0.00 0.00 0.00 99 1009.8
20260510115657 51 43 0.0 0.0 0.00 0.00 0.00 99 1009.8
20260510115156 51 181 0.0 1.0 0.00 0.00 0.00 99 1009.6
20260510114646 51 60 0.0 0.0 0.00 0.00 0.00 99 1009.5
20260510114142 51 68 0.0 0.0 0.00 0.00 0.00 99 1009.5
20260510113637 51 40 0.0 0.0 0.00 0.00 0.00 99 1009.5
20260510113135 51 22 0.0 0.0 0.00 0.00 0.00 99 1009.5
20260510112631 51 42 0.0 0.0 0.00 0.00 0.00 99 1009.4
20260510112128 51 336 0.0 0.0 0.00 0.00 0.00 99 1009.4
20260510111624 51 351 0.0 1.0 0.00 0.00 0.00 99 1009.2
20260510111120 51 48 0.0 0.0 0.00 0.00 0.00 99 1009.2
20260510110616 51 68 0.0 0.0 0.00 0.00 0.00 99 1009.0
20260510110113 51 314 0.0 1.0 0.00 0.00 0.00 99 1009.1
20260510105609 51 61 0.0 0.0 0.00 0.00 0.00 99 1009.2
20260510105103 51 132 0.0 0.0 0.00 0.00 0.00 99 1008.9
20260510104601 51 76 0.0 0.0 0.00 0.00 0.00 99 1009.0
20260510104057 51 59 0.0 0.0 0.00 0.00 0.00 99 1008.9
20260510103554 51 91 0.0 0.0 0.00 0.00 0.00 99 1009.2
20260510103050 50 67 0.0 0.0 0.00 0.00 0.00 99 1009.1
20260510102545 50 109 0.0 0.0 0.00 0.00 0.00 99 1008.9
20260510102042 50 83 0.0 0.0 0.00 0.00 0.00 99 1008.8
20260510101540 50 160 1.0 1.0 0.00 0.00 0.00 99 1008.9
20260510101038 50 114 0.0 0.0 0.00 0.00 0.00 99 1008.8
20260510100534 50 45 0.0 0.0 0.00 0.00 0.00 99 1008.7
20260510100032 50 67 0.0 0.0 0.00 0.00 0.00 99 1008.7
20260510095527 50 172 0.0 0.0 0.00 0.00 0.00 99 1008.9
20260510095026 50 173 1.0 1.0 0.00 0.00 0.00 99 1009.0
20260510094521 50 83 0.0 0.0 0.00 0.00 0.00 99 1008.8
20260510094017 50 87 0.0 0.0 0.00 0.00 0.00 99 1008.8
20260510093513 51 180 0.0 0.0 0.00 0.00 0.00 99 1008.7
20260510093010 51 178 0.0 0.0 0.00 0.00 0.00 99 1009.0
20260510092507 51 181 0.0 0.0 0.00 0.00 0.00 99 1008.8
20260510092006 51 180 0.0 0.0 0.00 0.00 0.00 99 1009.0
20260510091504 51 181 0.0 0.0 0.00 0.00 0.00 99 1009.1
20260510090959 51 181 0.0 0.0 0.00 0.00 0.00 99 1009.4
20260510090457 51 181 0.0 0.0 0.00 0.00 0.00 99 1009.4
20260510085952 51 30 0.0 0.0 0.00 0.00 0.00 99 1009.2
20260510085447 51 30 0.0 0.0 0.00 0.00 0.00 99 1009.2
20260510084943 51 30 0.0 0.0 0.00 0.00 0.00 99 1009.1
20260510084440 51 30 0.0 0.0 0.00 0.00 0.00 99 1009.1
20260510083937 51 30 0.0 0.0 0.00 0.00 0.00 99 1009.4
20260510083434 51 28 0.0 0.0 0.00 0.00 0.00 99 1009.3
20260510082928 51 29 0.0 0.0 0.00 0.00 0.00 99 1009.4
20260510082427 51 29 0.0 0.0 0.00 0.00 0.00 99 1009.1
20260510081926 51 26 0.0 0.0 0.00 0.00 0.00 99 1009.2
20260510081422 51 26 0.0 0.0 0.00 0.00 0.00 99 1009.4
20260510080918 51 26 0.0 0.0 0.00 0.00 0.00 99 1009.2
20260510080417 51 13 0.0 0.0 0.00 0.00 0.00 99 1009.2
20260510075914 51 13 0.0 0.0 0.00 0.00 0.00 99 1009.2
20260510075412 51 16 0.0 0.0 0.00 0.00 0.00 99 1009.2
20260510074909 51 345 2.0 2.0 0.00 0.00 0.00 99 1009.2
20260510074406 51 22 0.0 0.0 0.00 0.00 0.00 99 1009.0
20260510073902 50 8 1.0 1.0 0.00 0.00 0.00 99 1008.9
20260510073357 50 33 0.0 0.0 0.00 0.00 0.00 99 1008.4
20260510072854 50 33 0.0 0.0 0.00 0.00 0.00 99 1008.5
20260510072351 50 28 0.0 0.0 0.00 0.00 0.00 99 1008.7
20260510071847 51 61 0.0 0.0 0.00 0.00 0.00 99 1008.6
20260510071343 51 61 0.0 0.0 0.00 0.00 0.00 99 1008.3
20260510070842 51 66 0.0 0.0 0.00 0.00 0.00 99 1008.6
20260510070339 51 67 0.0 0.0 0.00 0.00 0.00 99 1008.6
20260510065833 51 67 0.0 0.0 0.00 0.00 0.00 99 1008.6
20260510065330 51 67 0.0 0.0 0.00 0.00 0.00 99 1008.8
20260510064827 51 67 0.0 0.0 0.00 0.00 0.00 99 1008.8
20260510064325 50 68 0.0 0.0 0.00 0.00 0.00 99 1009.0
20260510063821 51 68 0.0 0.0 0.00 0.00 0.00 99 1008.9
20260510063317 51 68 0.0 0.0 0.00 0.00 0.00 99 1008.9
20260510062814 51 247 0.0 1.0 0.00 0.00 0.00 99 1009.0
20260510062310 51 16 0.0 0.0 0.00 0.00 0.00 99 1008.9
20260510061806 51 37 0.0 0.0 0.00 0.00 0.00 99 1008.8
20260510061303 51 33 0.0 0.0 0.00 0.00 0.00 99 1008.8
20260510060758 51 359 0.0 0.0 0.00 0.00 0.00 99 1009.0
20260510060256 51 282 1.0 1.0 0.00 0.00 0.00 99 1008.8
20260510055752 51 3 0.0 0.0 0.00 0.00 0.00 99 1008.7
20260510055251 51 56 0.0 0.0 0.00 0.00 0.00 99 1008.6
20260510054750 51 66 0.0 0.0 0.00 0.00 0.00 99 1008.2
20260510054247 51 66 0.0 0.0 0.00 0.00 0.00 99 1008.4
20260510053746 51 65 0.0 0.0 0.00 0.00 0.00 99 1008.6
20260510053242 51 65 0.0 0.0 0.00 0.00 0.00 99 1008.3
20260510052738 51 95 0.0 0.0 0.00 0.00 0.00 99 1008.5
20260510052234 51 57 0.0 0.0 0.00 0.00 0.00 99 1008.4
20260510051730 51 56 0.0 0.0 0.00 0.00 0.00 99 1008.5
20260510051227 51 71 0.0 0.0 0.00 0.00 0.00 99 1008.6
20260510050724 51 51 0.0 0.0 0.00 0.00 0.00 99 1008.7
20260510050221 51 44 0.0 0.0 0.00 0.00 0.00 99 1008.8
20260510045718 51 349 0.0 0.0 0.00 0.00 0.00 99 1008.8
20260510045215 51 65 0.0 0.0 0.00 0.00 0.00 99 1008.8
20260510044711 51 51 0.0 0.0 0.00 0.00 0.00 99 1008.8
20260510044210 51 69 0.0 0.0 0.00 0.00 0.00 99 1008.6
20260510043704 51 51 0.0 0.0 0.00 0.00 0.00 99 1008.4
20260510043201 51 51 0.0 0.0 0.00 0.00 0.00 99 1008.6
20260510042658 51 51 0.0 0.0 0.00 0.00 0.00 99 1008.6
20260510042154 51 46 0.0 0.0 0.00 0.00 0.00 99 1008.6
20260510041652 51 45 0.0 0.0 0.00 0.00 0.00 99 1008.7
20260510041149 51 40 0.0 0.0 0.00 0.00 0.00 99 1008.6
20260510040646 51 333 0.0 0.0 0.00 0.00 0.00 99 1008.6
20260510040142 51 15 0.0 0.0 0.00 0.45 0.45 99 1008.5
20260510035638 51 50 0.0 0.0 0.00 0.45 0.45 99 1008.2
20260510035133 51 43 0.0 0.0 0.00 0.45 0.45 99 1008.3
20260510034630 51 50 0.0 0.0 0.00 0.45 0.45 99 1008.3
20260510034127 51 7 0.0 0.0 0.00 0.45 0.45 99 1008.4
20260510033623 51 37 0.0 0.0 0.00 0.45 0.45 99 1008.4
20260510033121 51 40 0.0 0.0 0.00 0.45 0.45 99 1008.3
20260510032618 51 37 0.0 0.0 0.00 0.45 0.45 99 1008.1
20260510032113 51 50 0.0 0.0 0.00 0.45 0.45 99 1008.4
20260510031608 51 50 0.0 0.0 0.00 0.45 0.45 99 1008.4
20260510031105 51 51 0.0 0.0 0.00 0.45 0.45 99 1008.5
20260510030559 51 40 0.0 0.0 0.00 0.45 0.45 99 1008.7
20260510030052 51 18 0.0 0.0 0.00 0.45 0.45 99 1008.7
20260510025549 51 31 0.0 0.0 0.00 0.45 0.45 99 1008.7
20260510025046 51 358 0.0 0.0 0.00 0.45 0.45 99 1008.7
20260510024542 51 24 0.0 0.0 0.00 0.45 0.45 99 1008.5
20260510024038 51 42 0.0 0.0 0.00 0.45 0.45 99 1008.6
20260510023535 51 37 0.0 0.0 0.00 0.45 0.45 99 1008.5
20260510023032 52 8 0.0 0.0 0.00 0.45 0.45 99 1008.5
20260510022532 52 10 0.0 0.0 0.00 0.45 0.45 99 1008.7
20260510022026 52 9 0.0 0.0 0.00 0.45 0.45 99 1008.6
20260510021523 52 9 0.0 0.0 0.00 0.45 0.45 99 1008.5
20260510021020 52 356 0.0 0.0 0.00 0.45 0.45 99 1008.8
20260510020515 52 30 0.0 0.0 0.00 0.45 0.45 99 1008.4
20260510020011 52 30 0.0 0.0 0.00 0.45 0.45 99 1008.6
20260510015507 52 43 0.0 0.0 0.00 0.45 0.45 99 1008.5
20260510015003 52 43 0.0 0.0 0.00 0.45 0.45 99 1008.4
20260510014500 51 43 0.0 0.0 0.00 0.45 0.45 99 1008.4
20260510013956 51 97 0.0 0.0 0.00 0.45 0.45 99 1008.4
20260510013451 51 60 0.0 0.0 0.00 0.45 0.45 99 1008.5
20260510012947 51 57 0.0 0.0 0.00 0.45 0.45 99 1008.1
20260510012442 51 71 0.0 0.0 0.00 0.45 0.45 99 1008.1
20260510011937 51 62 0.0 0.0 0.00 0.45 0.45 99 1008.1
20260510011432 51 62 0.0 0.0 0.00 0.45 0.45 99 1008.1
20260510010928 51 61 0.0 0.0 0.00 0.45 0.45 99 1007.9
20260510010426 51 57 0.0 0.0 0.00 0.45 0.45 99 1007.9
20260510005922 51 55 0.0 0.0 0.00 0.45 0.45 99 1007.8
20260510005418 51 70 0.0 0.0 0.00 0.45 0.45 99 1007.6
20260510004916 51 67 0.0 0.0 0.00 0.45 0.45 99 1007.6
20260510004413 51 87 0.0 0.0 0.00 0.45 0.45 99 1007.7
20260510003911 51 100 0.0 0.0 0.00 0.45 0.45 99 1007.5
20260510003408 51 81 0.0 0.0 0.00 0.45 0.45 99 1007.6
20260510002907 51 53 0.0 0.0 0.00 0.45 0.45 99 1007.6
20260510002404 51 72 0.0 0.0 0.00 0.45 0.45 99 1007.5
20260510001900 51 103 0.0 0.0 0.00 0.45 0.45 99 1007.6
20260510001358 51 98 0.0 0.0 0.00 0.45 0.45 99 1007.7
20260510000855 51 75 0.0 0.0 0.00 0.45 0.45 99 1007.5
20260510000351 52 49 0.0 0.0 0.00 0.45 0.45 99 1007.5
20260509235848 52 48 0.0 0.0 0.00 0.45 0.45 99 1007.3
20260509235345 52 42 0.0 0.0 0.00 0.45 0.45 99 1007.6
20260509234841 52 73 0.0 0.0 0.00 0.45 0.45 99 1007.5
20260509234338 52 68 0.0 0.0 0.00 0.45 0.45 99 1007.5
20260509233836 53 68 0.0 0.0 0.00 0.45 0.45 99 1007.5
20260509233333 53 67 0.0 0.0 0.00 0.45 0.45 99 1007.4
20260509232829 53 71 0.0 0.0 0.00 0.45 0.45 99 1007.6
20260509232327 53 67 0.0 0.0 0.00 0.45 0.45 99 1007.4
20260509231823 53 79 0.0 0.0 0.00 0.45 0.45 99 1007.6
20260509231320 53 87 0.0 0.0 0.00 0.45 0.45 99 1007.7
20260509230818 53 33 0.0 1.0 0.00 0.45 0.45 99 1007.8
20260509230314 53 66 0.0 0.0 0.00 0.45 0.45 99 1007.4
20260509225809 53 74 0.0 0.0 0.00 0.45 0.45 99 1007.7
20260509225307 53 66 0.0 0.0 0.00 0.45 0.45 99 1007.6
20260509224802 53 57 0.0 0.0 0.00 0.45 0.45 99 1008.0
20260509224259 53 69 0.0 0.0 0.00 0.45 0.45 99 1007.8
20260509223755 53 74 0.0 0.0 0.00 0.45 0.45 99 1008.0
20260509223253 53 69 0.0 0.0 0.00 0.45 0.45 99 1007.9
20260509222749 53 72 0.0 0.0 0.00 0.45 0.45 99 1007.7
20260509222245 53 103 0.0 1.0 0.00 0.45 0.45 99 1007.7
20260509221740 53 63 0.0 0.0 0.05 0.45 0.45 99 1007.8
20260509221237 53 57 0.0 0.0 0.24 0.45 0.45 99 1008.0
20260509220733 53 58 0.0 0.0 0.26 0.44 0.44 99 1008.1
20260509220230 53 66 0.0 0.0 0.19 0.42 0.42 99 1008.3
20260509215725 53 146 0.0 1.0 0.17 0.40 0.40 99 1008.2
20260509215222 53 61 0.0 0.0 0.19 0.39 0.39 99 1008.1
20260509214719 53 68 0.0 0.0 0.19 0.37 0.37 99 1008.4
20260509214216 53 6 0.0 1.0 0.28 0.36 0.36 99 1008.5
20260509213713 53 87 0.0 0.0 0.28 0.34 0.34 99 1008.4
20260509213208 53 116 0.0 0.0 0.26 0.31 0.31 99 1008.4
20260509212707 53 68 0.0 0.0 0.26 0.29 0.29 99 1008.0
20260509212203 53 68 0.0 0.0 0.24 0.27 0.27 99 1008.3
20260509211659 53 68 0.0 0.0 0.24 0.25 0.25 99 1008.6
20260509211156 53 74 0.0 0.0 0.19 0.24 0.24 99 1008.5
20260509210652 53 92 0.0 0.0 0.12 0.21 0.21 99 1008.5
20260509210150 53 57 0.0 0.0 0.12 0.21 0.21 99 1008.5
20260509205644 54 77 0.0 0.0 0.17 0.19 0.19 99 1008.4
20260509205138 54 63 0.0 0.0 0.19 0.18 0.18 99 1008.7
20260509204635 54 273 1.0 1.0 0.14 0.16 0.16 99 1008.8
20260509204131 54 56 0.0 0.0 0.12 0.15 0.15 99 1008.3
20260509203627 55 69 0.0 0.0 0.12 0.15 0.15 99 1008.4
20260509203126 55 16 0.0 0.0 0.07 0.13 0.13 99 1008.5
20260509202625 55 51 0.0 0.0 0.07 0.13 0.13 99 1008.4
20260509202121 55 86 0.0 0.0 0.00 0.12 0.12 99 1008.3
20260509201616 55 50 0.0 0.0 0.00 0.12 0.12 99 1008.2
20260509201114 55 49 0.0 0.0 0.00 0.12 0.12 99 1008.3
20260509200615 56 56 0.0 0.0 0.00 0.12 0.12 99 1008.2
20260509200105 56 65 0.0 0.0 0.00 0.12 0.12 99 1008.4
20260509195601 56 56 0.0 0.0 0.00 0.12 0.12 99 1008.0
20260509195056 55 56 0.0 0.0 0.00 0.12 0.12 99 1008.2
20260509194555 55 50 0.0 0.0 0.05 0.12 0.12 99 1008.5
20260509194054 55 55 0.0 0.0 0.05 0.12 0.12 99 1008.5
20260509193548 55 54 0.0 0.0 0.00 0.11 0.11 99 1008.8
20260509193045 56 123 0.0 0.0 0.00 0.11 0.11 99 1008.7
20260509192542 56 60 0.0 0.0 0.07 0.11 0.11 99 1008.7
20260509192037 56 5 1.0 1.0 0.07 0.11 0.11 99 1008.5
20260509191531 56 86 0.0 0.0 0.05 0.10 0.10 99 1008.8
20260509191027 56 35 0.0 0.0 0.17 0.10 0.10 99 1008.9